Torna al catalogo

STARLINK-5205

AttivoComunicazioniVLEO
NORAD 54202·PAYLOAD·🇺🇸 United States

Lanciato Oct 28, 2022 da Vandenberg Space Force Base

Loading…

Prossimi Passaggi (prossime 24 ore)

TLE

AggiornatoSource: CelesTrak SupGP

Epoca: Sep 14, 2026, 21:06 UTC

1 54202C 22141AX  26257.87965278 -.00001883  00000+0 -53881-4 0  2574
2 54202  53.1588 214.0402 0001287  95.9544 267.0355 15.35398272    16

Traccia STARLINK-5205 in tempo reale con AllMySat

Download on the App Store